Weather in Staropokhvistnevo

Russia / Samara Oblast     53°41′03″N   52°07′33″E
temp.,
°C
wind,
m/s
gust,
m/s
humid.,
%
clouds,
%
prec.,
mm/h
press.,
hPa
HPBL,
m
27 january, wed
wed2701:00−6s41096100 0.0 1029349
04:00−4s5995100 0.1 1028452
07:00−10sse3695100 0.0 1029124
10:00−10sse3796100 0.0 1029190
13:00−6s5993100 0.0 1029412
16:00−6sse51292100 0.0 1028377
19:00−7sse41194100 0.0 1027292
22:00−7sse41293100 0.0 1026344
28 january, thu
thu2801:00−7sse41191100 0.0 1026339
04:00−9sse41190100 0.0 1025287
07:00−10sse41093100 0.0 1024316
10:00−9sse41093100 0.0 1024342
13:00−7sse5991100 0.0 1023362
16:00−8se4992100 0.0 1022298
19:00−9se4993100 0.0 1021248
22:00−9se3893100 0.0 1020233
29 january, fri
fri2901:00−9se3692100 0.0 1020138
04:00−8se51091100 0.0 1018282
07:00−8se51189100 0.0 1016323
10:00−7se61288100 0.0 1015377
13:00−5se61088100 0.0 1014477
16:00−5se5109195 0.1 1012518
19:00−4sse41096100 1.3 1011554
22:00−5sse3109698 1.6 1010313
30 january, sat
sat3001:00−4sse3997100 0.5 1010315
04:00−3sse4897100 1.7 1009356
07:00−4s3897100 0.4 1009250
10:00−3s51195100 0.4 1009400
13:00−2ssw7129399 0.1 1009642
16:00−1s71594100 0.1 1008821
19:000ssw81597100 1.3 1009927
22:00+1wsw71298100 2.0 1011720
31 january, sun
sun3101:000sw3899100 0.9 1013398
04:000ssw51198100 1.9 1013551
07:00−1s61193100 0.8 1013448
10:00−3sse5139099 0.8 1013390
13:00−1s61683100 0.0 1014590
16:00−1s61681100 0.0 1013555
19:00−3sse61883100 0.0 1012476
22:00−3s71681100 0.0 1012538